| time (UTC) | temp F | wind direction | speed MPH | gust MPH | rain 1hr in | rain 24hr in | rain mn in | humidity % | barometer mb |
| 20260507220013 | 36 | 360 | 0.0 | 0.0 | 0.00 | 0.00 | 0.06 | 88 | 1017.6 |
| 20260507214510 | 36 | 360 | 0.0 | 0.0 | 0.00 | 0.00 | 0.06 | 88 | 1017.8 |
| 20260507213018 | 36 | 360 | 0.0 | 0.0 | 0.00 | 0.00 | 0.06 | 88 | 1017.7 |
| 20260507211508 | 36 | 360 | 0.0 | 0.0 | 0.00 | 0.00 | 0.06 | 88 | 1017.6 |
| 20260507210023 | 36 | 309 | 0.0 | 0.0 | 0.00 | 0.00 | 0.06 | 86 | 1017.5 |
| 20260507204507 | 37 | 309 | 0.0 | 0.0 | 0.00 | 0.00 | 0.06 | 86 | 1017.4 |
| 20260507203010 | 38 | 309 | 0.0 | 0.0 | 0.00 | 0.00 | 0.06 | 85 | 1017.2 |
| 20260507201513 | 39 | 308 | 0.0 | 0.0 | 0.00 | 0.00 | 0.06 | 84 | 1017.0 |
| 20260507200011 | 39 | 308 | 0.0 | 0.0 | 0.00 | 0.00 | 0.06 | 84 | 1016.9 |
| 20260507194502 | 39 | 309 | 0.0 | 0.0 | 0.00 | 0.00 | 0.06 | 84 | 1016.8 |
| 20260507193132 | 39 | 309 | 0.0 | 0.0 | 0.00 | 0.00 | 0.06 | 85 | 1016.6 |
| 20260507191603 | 39 | 311 | 2.0 | 0.0 | 0.00 | 0.00 | 0.06 | 84 | 1016.4 |
| 20260507190059 | 39 | 279 | 3.0 | 0.0 | 0.00 | 0.00 | 0.06 | 83 | 1016.5 |
| 20260507184559 | 40 | 262 | 0.0 | 0.0 | 0.00 | 0.00 | 0.06 | 81 | 1016.5 |
| 20260507183102 | 41 | 304 | 0.0 | 0.0 | 0.00 | 0.00 | 0.06 | 80 | 1016.1 |
| 20260507181555 | 41 | 293 | 1.0 | 0.0 | 0.00 | 0.00 | 0.06 | 80 | 1016.1 |
| 20260507180057 | 41 | 308 | 1.0 | 0.0 | 0.00 | 0.00 | 0.06 | 79 | 1015.7 |
| 20260507174600 | 42 | 289 | 1.0 | 0.0 | 0.00 | 0.00 | 0.06 | 77 | 1015.9 |
| 20260507173128 | 42 | 239 | 2.0 | 0.0 | 0.00 | 0.00 | 0.06 | 76 | 1015.6 |
| 20260507171551 | 43 | 227 | 2.0 | 0.0 | 0.00 | 0.00 | 0.06 | 74 | 1015.6 |
| 20260507170053 | 43 | 229 | 3.0 | 0.0 | 0.00 | 0.00 | 0.06 | 74 | 1015.5 |
| 20260507164557 | 45 | 228 | 2.0 | 0.0 | 0.00 | 0.00 | 0.06 | 74 | 1015.5 |
| 20260507163049 | 44 | 240 | 2.0 | 0.0 | 0.00 | 0.00 | 0.06 | 76 | 1015.3 |
| 20260507161603 | 43 | 306 | 2.0 | 0.0 | 0.00 | 0.00 | 0.06 | 80 | 1015.3 |
| 20260507154548 | 41 | 299 | 3.0 | 0.0 | 0.00 | 0.00 | 0.06 | 80 | 1015.5 |
| 20260507153047 | 42 | 299 | 3.0 | 0.0 | 0.00 | 0.00 | 0.06 | 79 | 1015.4 |
| 20260507151546 | 42 | 252 | 7.0 | 0.0 | 0.00 | 0.00 | 0.06 | 79 | 1015.4 |
| 20260507150045 | 42 | 199 | 3.0 | 0.0 | 0.00 | 0.00 | 0.06 | 78 | 1015.3 |
| 20260507144556 | 42 | 254 | 3.0 | 0.0 | 0.00 | 0.00 | 0.06 | 78 | 1015.3 |
| 20260507143045 | 42 | 279 | 5.0 | 0.0 | 0.00 | 0.00 | 0.06 | 78 | 1015.1 |
| 20260507141542 | 43 | 258 | 5.0 | 0.0 | 0.00 | 0.00 | 0.06 | 78 | 1015.0 |
| 20260507140042 | 44 | 216 | 4.0 | 0.0 | 0.00 | 0.00 | 0.06 | 77 | 1014.8 |
| 20260507134539 | 44 | 249 | 3.0 | 0.0 | 0.00 | 0.00 | 0.06 | 75 | 1014.6 |
| 20260507133040 | 46 | 280 | 3.0 | 0.0 | 0.00 | 0.00 | 0.06 | 73 | 1014.5 |
| 20260507131537 | 47 | 242 | 4.0 | 0.0 | 0.00 | 0.00 | 0.06 | 74 | 1014.6 |
| 20260507130039 | 46 | 224 | 4.0 | 0.0 | 0.00 | 0.00 | 0.06 | 76 | 1014.4 |
| 20260507124531 | 45 | 255 | 5.0 | 0.0 | 0.00 | 0.00 | 0.06 | 75 | 1014.4 |
| 20260507123039 | 43 | 243 | 4.0 | 0.0 | 0.00 | 0.00 | 0.06 | 78 | 1014.3 |
| 20260507121529 | 44 | 246 | 3.0 | 0.0 | 0.00 | 0.00 | 0.06 | 83 | 1014.3 |
| 20260507120029 | 42 | 304 | 2.0 | 0.0 | 0.00 | 0.00 | 0.06 | 86 | 1014.4 |
| 20260507114527 | 40 | 296 | 1.0 | 0.0 | 0.00 | 0.00 | 0.06 | 86 | 1014.2 |
| 20260507113028 | 40 | 277 | 6.0 | 0.0 | 0.00 | 0.00 | 0.06 | 83 | 1014.1 |
| 20260507111525 | 42 | 244 | 6.0 | 0.0 | 0.00 | 0.00 | 0.05 | 81 | 1013.7 |
| 20260507110029 | 44 | 252 | 1.0 | 0.0 | 0.00 | 0.00 | 0.05 | 79 | 1013.5 |
| 20260507104523 | 42 | 182 | 2.0 | 0.0 | 0.00 | 0.00 | 0.05 | 83 | 1013.5 |
| 20260507103023 | 43 | 191 | 4.0 | 0.0 | 0.00 | 0.00 | 0.03 | 78 | 1013.5 |
| 20260507101520 | 44 | 236 | 4.0 | 0.0 | 0.00 | 0.00 | 0.03 | 81 | 1013.3 |
| 20260507100022 | 43 | 227 | 2.0 | 0.0 | 0.00 | 0.00 | 0.03 | 77 | 1013.3 |
| 20260507094520 | 43 | 192 | 3.0 | 0.0 | 0.00 | 0.00 | 0.03 | 76 | 1013.1 |
| 20260507093015 | 44 | 276 | 3.0 | 0.0 | 0.00 | 0.00 | 0.03 | 73 | 1013.0 |
| 20260507091513 | 45 | 248 | 2.0 | 0.0 | 0.00 | 0.00 | 0.03 | 71 | 1013.0 |
| 20260507090013 | 45 | 194 | 2.0 | 0.0 | 0.00 | 0.00 | 0.03 | 73 | 1012.8 |
| 20260507084513 | 44 | 212 | 2.0 | 0.0 | 0.00 | 0.00 | 0.03 | 74 | 1012.6 |
| 20260507083006 | 45 | 291 | 1.0 | 0.0 | 0.00 | 0.00 | 0.03 | 70 | 1012.5 |
| 20260507081504 | 45 | 277 | 0.0 | 0.0 | 0.00 | 0.00 | 0.03 | 69 | 1012.3 |
| 20260507080001 | 43 | 277 | 0.0 | 0.0 | 0.00 | 0.00 | 0.03 | 73 | 1012.3 |
| 20260507074601 | 42 | 280 | 1.0 | 0.0 | 0.00 | 0.00 | 0.03 | 74 | 1012.2 |
| 20260507073057 | 42 | 280 | 1.0 | 0.0 | 0.00 | 0.00 | 0.03 | 73 | 1012.0 |
| 20260507071554 | 44 | 266 | 1.0 | 0.0 | 0.00 | 0.00 | 0.03 | 74 | 1011.9 |
| 20260507070055 | 43 | 238 | 0.0 | 0.0 | 0.00 | 0.00 | 0.03 | 74 | 1011.8 |
| 20260507064606 | 44 | 236 | 0.0 | 0.0 | 0.00 | 0.00 | 0.03 | 76 | 1011.7 |
| 20260507063052 | 43 | 126 | 2.0 | 0.0 | 0.00 | 0.00 | 0.03 | 76 | 1011.5 |
| 20260507061545 | 42 | 137 | 3.0 | 0.0 | 0.00 | 0.00 | 0.03 | 76 | 1011.5 |
| 20260507060043 | 42 | 125 | 2.0 | 0.0 | 0.00 | 0.00 | 0.03 | 78 | 1011.5 |
| 20260507054543 | 41 | 121 | 4.0 | 0.0 | 0.00 | 0.00 | 0.03 | 80 | 1011.3 |
| 20260507053039 | 41 | 143 | 1.0 | 0.0 | 0.00 | 0.00 | 0.03 | 82 | 1011.1 |
| 20260507051535 | 39 | 136 | 4.0 | 0.0 | 0.00 | 0.00 | 0.03 | 84 | 1010.9 |
| 20260507050039 | 39 | 112 | 2.0 | 0.0 | 0.00 | 0.00 | 0.03 | 86 | 1011.0 |
| 20260507044531 | 38 | 80 | 2.0 | 0.0 | 0.00 | 0.00 | 0.03 | 88 | 1010.9 |
| 20260507043029 | 38 | 105 | 2.0 | 0.0 | 0.00 | 0.00 | 0.03 | 89 | 1010.8 |
| 20260507041545 | 39 | 72 | 2.0 | 0.0 | 0.00 | 0.00 | 0.03 | 91 | 1010.7 |
| 20260507040024 | 37 | 126 | 4.0 | 0.0 | 0.00 | 0.00 | 0.03 | 92 | 1010.6 |
| 20260507034522 | 37 | 107 | 4.0 | 0.0 | 0.00 | 0.00 | 0.03 | 92 | 1010.6 |
| 20260507033020 | 37 | 126 | 5.0 | 0.0 | 0.00 | 0.00 | 0.03 | 93 | 1010.6 |
| 20260507031518 | 37 | 124 | 3.0 | 0.0 | 0.00 | 0.00 | 0.03 | 93 | 1010.5 |
| 20260507030016 | 36 | 90 | 1.0 | 0.0 | 0.00 | 0.00 | 0.03 | 93 | 1010.2 |
| 20260507024516 | 36 | 119 | 3.0 | 0.0 | 0.00 | 0.00 | 0.03 | 93 | 1010.3 |
| 20260507023015 | 36 | 101 | 2.0 | 0.0 | 0.00 | 0.00 | 0.03 | 94 | 1010.5 |
| 20260507021514 | 35 | 63 | 1.0 | 0.0 | 0.00 | 0.00 | 0.03 | 93 | 1010.4 |
| 20260507020013 | 35 | 63 | 1.0 | 0.0 | 0.00 | 0.00 | 0.03 | 93 | 1010.3 |
| 20260507014523 | 35 | 64 | 3.0 | 0.0 | 0.00 | 0.00 | 0.03 | 93 | 1010.3 |
| 20260507013029 | 35 | 90 | 0.0 | 0.0 | 0.00 | 0.00 | 0.03 | 93 | 1010.2 |
| 20260507011513 | 35 | 53 | 0.0 | 0.0 | 0.00 | 0.00 | 0.03 | 93 | 1010.2 |
| 20260507010007 | 35 | 53 | 0.0 | 0.0 | 0.00 | 0.00 | 0.03 | 93 | 1010.2 |
| 20260507004505 | 35 | 53 | 0.0 | 0.0 | 0.00 | 0.00 | 0.03 | 93 | 1010.1 |
| 20260507003004 | 35 | 53 | 1.0 | 0.0 | 0.00 | 0.00 | 0.03 | 93 | 1010.1 |
| 20260507001503 | 35 | 53 | 1.0 | 0.0 | 0.00 | 0.00 | 0.03 | 92 | 1010.0 |
| 20260507000005 | 35 | 54 | 1.0 | 0.0 | 0.00 | 0.00 | 0.03 | 92 | 1010.0 |
| 20260506234600 | 35 | 54 | 2.0 | 0.0 | 0.00 | 0.00 | 0.03 | 92 | 1009.9 |
| 20260506233107 | 35 | 80 | 2.0 | 0.0 | 0.00 | 0.00 | 0.03 | 92 | 1009.8 |
| 20260506231555 | 36 | 117 | 0.0 | 0.0 | 0.00 | 0.00 | 0.03 | 92 | 1009.7 |
| 20260506230054 | 36 | 117 | 0.0 | 0.0 | 0.00 | 0.00 | 0.02 | 92 | 1009.6 |
| 20260506224553 | 36 | 125 | 0.0 | 0.0 | 0.00 | 0.00 | 0.02 | 92 | 1009.6 |
| 20260506223105 | 36 | 125 | 0.0 | 0.0 | 0.00 | 0.00 | 0.02 | 92 | 1009.6 |
| 20260506221549 | 36 | 125 | 0.0 | 0.0 | 0.00 | 0.00 | 0.01 | 91 | 1009.6 |